Change the Weather History Date:

Saturday, June 29, 2013

  Actual Average (KVPZ) Record (KVPZ)
Temperature  
Mean Temperature 66 °F 72 °F  
Max Temperature 71 °F 83 °F 91 °F (2005)
Min Temperature 61 °F 62 °F 53 °F (2004)
Degree Days  
Heating Degree Days 0 0  
Month to date heating degree days 41  
Since 1 June heating degree days 41  
Since 1 July heating degree days 6320  
Cooling Degree Days 1 8  
Month to date cooling degree days 157  
Year to date cooling degree days 204  
Since 1 June cooling degree days 157  
Growing Degree Days 16 (Base 50)    
Moisture  
Dew Point 63 °F    
Average Humidity 94    
Maximum Humidity 100    
Minimum Humidity 70    
Precipitation  
Precipitation 0.50 in 0.13 in 0.18 in (2012)
Month to date precipitation 3.78  
Year to date precipitation 16.76  
Sea Level Pressure  
Sea Level Pressure 29.65 in    
Wind  
Wind Speed 5 mph (North)    
Max Wind Speed 16 mph    
Max Gust Speed 17 mph    
Visibility 9 miles    
Events Rain , Thunderstorm    
T = Trace of Precipitation, MM = Missing Value Source: NWS Daily Summary

Daily Weather History Graph

Daily Weather History Graph

Search for Another Location

Airport or City:

Trip Planner

Search our weather history database for the weather conditions in past years. The results will help you decide how hot, cold, wet, or windy it might be!

Date:

Astronomy

Jun. 29, 2013 Rise Set
Actual Time 5:15 AM CDT 8:25 PM CDT
Civil Twilight 4:41 AM CDT 8:58 PM CDT
Nautical Twilight 3:58 AM CDT 9:42 PM CDT
Astronomical Twilight 3:06 AM CDT 10:34 PM CDT
Moon No Moon Rise 12:32 PM CDT (6/29)
Length of Visible Light 16h 17m
Length of Day
15h 09m
Waning Gibbous, 55% of the Moon is Illuminated
Jun 29
Waning Gibbous
Jun 29
Last Quarter
Jul 8
New
Jul 15
First Quarter
Jul 22
Full

Hourly Weather History & Observations

Time (CDT) Temp. Dew Point Humidity Pressure Visibility Wind Dir Wind Speed Gust Speed Precip Events Conditions
12:15 AM 63.9 °F 63.3 °F 98% 29.61 in 10.0 mi Calm Calm - N/A   Clear
12:35 AM 63.5 °F 62.8 °F 97% 29.60 in 10.0 mi NW 4.6 mph - N/A   Scattered Clouds
12:55 AM 64.0 °F 63.3 °F 97% 29.60 in 10.0 mi NW 4.6 mph - N/A   Scattered Clouds
1:15 AM 63.5 °F 62.6 °F 97% 29.60 in 10.0 mi NW 4.6 mph - N/A   Scattered Clouds
1:35 AM 63.7 °F 62.8 °F 97% 29.60 in 10.0 mi NW 4.6 mph - N/A   Scattered Clouds
1:55 AM 62.6 °F 61.9 °F 97% 29.60 in 10.0 mi NW 3.5 mph - N/A   Scattered Clouds
2:15 AM 62.1 °F 62.1 °F 100% 29.60 in 10.0 mi NW 3.5 mph - N/A   Scattered Clouds
2:35 AM 62.6 °F 62.6 °F 100% 29.59 in 10.0 mi Calm Calm - N/A   Scattered Clouds
2:55 AM 62.6 °F 62.6 °F 100% 29.59 in 10.0 mi NW 3.5 mph - N/A   Clear
3:15 AM 61.7 °F 61.7 °F 100% 29.59 in 7.0 mi Calm Calm - N/A   Clear
3:35 AM 62.1 °F 62.1 °F 100% 29.59 in 10.0 mi NW 3.5 mph - N/A   Scattered Clouds
3:55 AM 61.2 °F 61.2 °F 100% 29.59 in 10.0 mi Calm Calm - N/A   Clear
4:15 AM 61.9 °F 61.9 °F 100% 29.60 in 10.0 mi Calm Calm - N/A   Clear
4:35 AM 61.0 °F 61.0 °F 100% 29.60 in 7.0 mi Calm Calm - N/A   Mostly Cloudy
4:55 AM 61.5 °F 61.5 °F 100% 29.60 in 7.0 mi Calm Calm - N/A   Mostly Cloudy
5:15 AM 61.9 °F 61.9 °F 100% 29.61 in 7.0 mi NNW 11.5 mph 16.1 mph N/A   Mostly Cloudy
5:35 AM 62.6 °F 62.6 °F 100% 29.61 in 10.0 mi NNW 6.9 mph - N/A   Overcast
5:55 AM 62.8 °F 62.8 °F 100% 29.61 in 10.0 mi NNW 9.2 mph - N/A   Overcast
6:15 AM 62.8 °F 62.2 °F 98% 29.62 in 10.0 mi NW 6.9 mph - N/A   Overcast
6:35 AM 62.6 °F 62.1 °F 98% 29.62 in 10.0 mi NNW 6.9 mph - N/A   Overcast
6:55 AM 62.8 °F 62.1 °F 97% 29.62 in 10.0 mi NNW 9.2 mph - N/A   Overcast
7:15 AM 62.8 °F 62.6 °F 99% 29.62 in 10.0 mi NNW 8.1 mph - N/A   Overcast
7:35 AM 62.6 °F 62.6 °F 100% 29.62 in 7.0 mi NW 5.8 mph - N/A   Overcast
7:55 AM 62.4 °F 62.4 °F 100% 29.62 in 7.0 mi NNW 5.8 mph - N/A   Overcast
8:15 AM 62.6 °F 62.6 °F 100% 29.63 in 7.0 mi WNW 4.6 mph - N/A   Overcast
8:35 AM 62.6 °F 62.6 °F 100% 29.63 in 7.0 mi NW 5.8 mph - N/A   Overcast
8:55 AM 63.1 °F 63.1 °F 100% 29.63 in 7.0 mi North 3.5 mph - N/A   Overcast
9:15 AM 63.9 °F 62.6 °F 96% 29.63 in 10.0 mi NNW 5.8 mph - N/A   Overcast
9:35 AM 64.8 °F 62.1 °F 91% 29.63 in 10.0 mi Calm Calm - N/A   Overcast
9:55 AM 65.3 °F 62.4 °F 90% 29.63 in 10.0 mi North 4.6 mph - N/A   Overcast
10:15 AM 65.8 °F 62.1 °F 88% 29.64 in 10.0 mi Calm Calm - N/A   Overcast
10:35 AM 66.4 °F 62.4 °F 87% 29.64 in 10.0 mi Calm Calm - N/A   Overcast
10:55 AM 67.5 °F 62.2 °F 83% 29.64 in 10.0 mi Calm Calm - N/A   Mostly Cloudy
11:15 AM 67.3 °F 61.3 °F 81% 29.64 in 10.0 mi NE 5.8 mph - N/A   Overcast
11:35 AM 67.6 °F 62.2 °F 83% 29.64 in 10.0 mi NE 4.6 mph - N/A   Overcast
11:55 AM 68.9 °F 62.6 °F 80% 29.64 in 10.0 mi Calm Calm - N/A   Overcast
12:15 PM 70.0 °F 61.7 °F 75% 29.64 in 10.0 mi Calm Calm - N/A   Mostly Cloudy
12:35 PM 71.1 °F 61.0 °F 70% 29.64 in 10.0 mi Calm Calm - N/A   Mostly Cloudy
12:55 PM 70.5 °F 61.2 °F 72% 29.64 in 10.0 mi Calm Calm - N/A   Overcast
1:15 PM 69.1 °F 63.0 °F 81% 29.64 in 3.0 mi Calm Calm - 0.03 in Rain , Thunderstorm Light Thunderstorms and Rain
1:35 PM 66.6 °F 63.5 °F 90% 29.64 in 1.2 mi Calm Calm - 0.19 in Rain Heavy Rain
1:55 PM 66.9 °F 62.8 °F 87% 29.64 in 10.0 mi SSE 3.5 mph - 0.20 in   Overcast
2:15 PM 65.7 °F 63.0 °F 91% 29.65 in 0.5 mi NW 5.8 mph - 0.26 in Rain Heavy Rain
2:35 PM 65.8 °F 64.2 °F 94% 29.65 in 5.0 mi NW 6.9 mph - 0.28 in Rain Rain
2:55 PM 66.2 °F 64.0 °F 93% 29.66 in 10.0 mi NNW 12.7 mph 17.3 mph 0.28 in Rain Light Rain
3:15 PM 65.8 °F 63.5 °F 92% 29.66 in 10.0 mi NNW 13.8 mph - N/A   Overcast
3:35 PM 66.6 °F 62.2 °F 86% 29.66 in 10.0 mi North 16.1 mph - N/A   Mostly Cloudy
3:55 PM 66.9 °F 62.8 °F 87% 29.68 in 10.0 mi North 12.7 mph - N/A   Mostly Cloudy
4:15 PM 67.1 °F 62.6 °F 85% 29.68 in 10.0 mi North 13.8 mph - N/A   Mostly Cloudy
4:35 PM 66.6 °F 62.4 °F 86% 29.68 in 10.0 mi North 12.7 mph 16.1 mph N/A Rain Light Rain
4:55 PM 65.8 °F 61.7 °F 86% 29.68 in 10.0 mi North 10.4 mph - N/A   Scattered Clouds
5:15 PM 65.3 °F 61.9 °F 89% 29.68 in 10.0 mi North 11.5 mph - N/A Rain Light Rain
5:35 PM 64.9 °F 63.0 °F 93% 29.67 in 10.0 mi North 8.1 mph - 0.01 in Rain Light Rain
5:55 PM 64.6 °F 63.1 °F 95% 29.68 in 10.0 mi North 9.2 mph - 0.01 in Rain Light Rain
6:15 PM 64.4 °F 63.1 °F 96% 29.68 in 10.0 mi North 12.7 mph - N/A Rain Light Rain
6:35 PM 64.4 °F 63.5 °F 97% 29.69 in 10.0 mi North 8.1 mph - N/A   Overcast
6:55 PM 64.8 °F 63.9 °F 97% 29.69 in 10.0 mi North 9.2 mph - N/A   Overcast
7:15 PM 64.9 °F 63.9 °F 96% 29.70 in 10.0 mi North 9.2 mph - N/A   Overcast
7:35 PM 65.3 °F 64.4 °F 97% 29.70 in 10.0 mi North 9.2 mph - N/A   Mostly Cloudy
7:55 PM 65.7 °F 64.6 °F 96% 29.70 in 10.0 mi North 8.1 mph - N/A   Scattered Clouds
8:15 PM 65.7 °F 64.4 °F 96% 29.71 in 10.0 mi North 8.1 mph - N/A   Mostly Cloudy
8:35 PM 65.7 °F 64.4 °F 96% 29.71 in 10.0 mi North 5.8 mph - N/A   Mostly Cloudy
8:55 PM 65.8 °F 64.2 °F 94% 29.72 in 10.0 mi North 6.9 mph - N/A Rain Rain
9:15 PM 65.3 °F 63.5 °F 94% 29.72 in 10.0 mi North 6.9 mph - N/A Rain Rain
9:35 PM 64.9 °F 63.5 °F 95% 29.73 in 10.0 mi North 8.1 mph - N/A   Drizzle
9:55 PM 64.9 °F 64.0 °F 97% 29.73 in 10.0 mi NNE 10.4 mph - N/A   Overcast
10:15 PM 64.4 °F 63.9 °F 98% 29.74 in 5.0 mi NNE 9.2 mph - 0.01 in   Drizzle
10:35 PM 64.4 °F 64.2 °F 99% 29.74 in 7.0 mi NE 4.6 mph - 0.01 in   Overcast
10:55 PM 64.4 °F 63.9 °F 98% 29.74 in 10.0 mi NNE 5.8 mph - 0.01 in   Overcast
11:15 PM 64.0 °F 63.5 °F 98% 29.75 in 10.0 mi NE 5.8 mph - N/A   Overcast
11:35 PM 63.7 °F 62.6 °F 96% 29.75 in 10.0 mi NE 3.5 mph - N/A   Overcast
11:55 PM 63.5 °F 63.0 °F 98% 29.75 in 10.0 mi NNE 4.6 mph - N/A   Overcast